Flight Track Log - Related Links

Times and Time Zones

All times are in EDT time to prevent confusion due to time zone crossing. See the N43GT flight status page for this flight to view local times or setup timezone preferences in your user account.

Time Position Orientation Groundspeed Altitude Reporting Facility
EDT Latitude Longitude Course Direction KTS MPH feet Rate Location/Type
07:26PM 37.0572 -100.7414 73° East 192 221 8,700  Level Kansas City Center
07:27PM 37.0728 -100.6689 75° East 194 223 10,400 1,476 Climbing Kansas City Center
07:28PM 37.0867 -100.6067 74° East 194 223 11,800 1,500 Climbing Kansas City Center
07:29PM 37.1025 -100.5278 76° East 202 232 13,500 1,584 Climbing Kansas City Center
07:30PM 37.1158 -100.4639 75° East 203 234 15,100 1,584 Climbing Kansas City Center
07:31PM 37.1308 -100.3933 75° East 193 222 16,800 1,488 Climbing Kansas City Center
07:32PM 37.1270 -100.5089 73° East  Level FlightAware Approximate
07:32PM 37.1428 -100.3347 76° East 188 216 18,100  Level Kansas City Center
07:33PM 37.1583 -100.2633 75° East 186 214 19,000 864 Climbing Kansas City Center
07:34PM 37.1719 -100.1931 76° East 208 239 19,900 1,091 Climbing Kansas City Center
07:35PM 37.1881 -100.1131 76° East 211 243 21,200 1,143 Climbing Kansas City Center
07:37PM 37.2019 -100.0481 75° East 208 239 22,300 864 Climbing Kansas City Center
07:38PM 37.2172 -99.9692 76° East 207 238 23,000 341 Climbing Kansas City Center
07:39PM 37.2322 -99.8925 76° East 226 260 23,000  Level Kansas City Center
07:40PM 37.2525 -99.7939 75° East 253 291 23,000  Level Kansas City Center
07:41PM 37.2708 -99.7058 75° East 266 306 23,000  Level Kansas City Center
07:42PM 37.2881 -99.6181 76° East 268 308 23,000 -48 Level Kansas City Center
07:43PM 37.3100 -99.5136 75° East 274 315 22,900 -435 Descending Kansas City Center
07:44PM 37.3297 -99.4206 75° East 277 319 22,100 -762 Descending Kansas City Center
07:45PM 37.3492 -99.3294 75° East 275 316 21,300 -823 Descending Kansas City Center
07:46PM 37.3658 -99.2406 77° East 266 306 20,400 -927 Descending Kansas City Center
07:47PM 37.3878 -99.1364 75° East 260 299 19,400 -919 Descending Kansas City Center
07:48PM 37.4011 -99.0478 79° East 260 299 18,500 -829 Descending Kansas City Center
07:49PM 37.4197 -98.9614 75° East 260 299 17,700 -829 Descending Kansas City Center
07:50PM 37.4356 -98.8753 77° East 258 297 16,800 -871 Descending Kansas City Center
07:51PM 37.4525 -98.7894 76° East 257 296 15,900 -864 Descending Kansas City Center
07:52PM 37.4700 -98.7036 76° East 256 295 15,000 -871 Descending Kansas City Center
07:53PM 37.4906 -98.5972 76° East 257 296 14,100 -780 Descending Kansas City Center
07:54PM 37.5067 -98.5089 77° East 257 296 13,400 -702 Descending Kansas City Center
07:55PM 37.5181 -98.4564 75° East 256 295 13,000 -677 Descending Kansas City Center
07:55PM 37.5239 -98.4225 78° East 257 296 12,700 -689 Descending Kansas City Center
07:56PM 37.5336 -98.3700 77° East 255 293 12,300 -762 Descending Kansas City Center
07:56PM 37.5406 -98.3342 76° East 257 296 11,900 -639 Descending Kansas City Center
07:58PM 37.5708 -98.1800 76° East 283 326 11,000 -672 Descending Kansas City Center
07:58PM 37.5794 -98.1278 78° East 273 314 10,500 -787 Descending Kansas City Center
07:59PM 37.5875 -98.0853 77° East 278 320 10,200 -689 Descending Kansas City Center
07:59PM 37.5981 -98.0331 76° East 277 319 9,800 -866 Descending Kansas City Center
08:00PM 37.6153 -97.9375 77° East 278 320 8,800 -933 Descending Kansas City Center
08:01PM 37.6256 -97.8869 76° East 283 326 8,400 -871 Descending Kansas City Center
08:01PM 37.6344 -97.8411 76° East 281 323 7,900 -1,000 Descending Kansas City Center
08:02PM 37.6453 -97.7836 77° East 281 323 7,400 -857 Descending Kansas City Center
08:02PM 37.6503 -97.7478 80° East 281 323 7,000 -984 Descending Kansas City Center
08:03PM 37.6600 -97.6944 77° East 261 300 6,400 -1,125 Descending Kansas City Center
08:03PM 37.6708 -97.6428 75° East 269 310 5,800 -1,000 Descending Kansas City Center
08:04PM 37.6767 -97.6047 79° East 258 297 5,400 -900 Descending Kansas City Center
08:04PM 37.6861 -97.5558 76° East 263 303 4,900 -824 Descending Kansas City Center
08:05PM 37.7019 -97.4736 76° East 253 291 4,000 -692 Descending Kansas City Center
08:06PM 37.7039 -97.4525 83° East 222 255 4,000  Level Kansas City Center
08:06PM 37.7172 -97.3939 74° East 250 288 4,000  Level Kansas City Center
08:08PM 37.7210 -97.3075 78° East  Level FlightAware Approximate
08:15PM 37.7333 -97.2167 90° East  Level FlightAware Approximate
08:16PM 37.7476 -97.2211 90° East  Level Estimated
08:17PM 37.7476 -97.2211 90° East  Level Estimated
08:18PM 37.7476 -97.2211 90° East  Level Estimated
08:19PM 37.7476 -97.2211 90° East  Level Estimated
08:20PM 37.7476 -97.2211 90° East  Level Estimated
08:21PM 37.7476 -97.2211 90° East  Level Estimated
08:22PM 37.7476 -97.2211 90° East  Level Estimated
08:23PM 37.7476 -97.2211 90° East  Level Estimated
08:24PM 37.7476 -97.2211 90° East  Level Estimated
08:25PM 37.7476 -97.2211 90° East  Level Estimated
08:26PM 37.7476 -97.2211 90° East  Level Estimated
08:27PM 37.7476 -97.2211 90° East  Level Estimated
08:28PM 37.7476 -97.2211 90° East  Level Estimated

Login

Don't have an account? Register now (free) for customized features, flight alerts, and more!